Bowling Green, KY

3:10 AM CDT on June 20, 2018 (GMT -0500)
Bowling Green-Warren County Regional

Weather History for KBWG - August, 2017

Change the Weather History Date:

Sunday, August 13, 2017

  Actual Average Record
Temperature  
Mean Temperature 76 °F 78 °F  
Max Temperature 87 °F 89 °F 110 °F (1881)
Min Temperature 64 °F 67 °F 50 °F (1964)
Degree Days  
Heating Degree Days 0 0  
Month to date heating degree days 0 0  
Since 1 June heating degree days 0 5  
Since 1 July heating degree days 0 0  
Cooling Degree Days 11 13  
Month to date cooling degree days 134 170  
Year to date cooling degree days 1141 1051  
Since 1 June cooling degree days 892 898  
Growing Degree Days 24 (Base 50)    
Moisture  
Dew Point 66 °F    
Average Humidity 72    
Maximum Humidity 93    
Minimum Humidity 51    
Precipitation  
Precipitation 0.00 in 0.10 in 1.75 in (1941)
Month to date precipitation 2.70 1.28  
Year to date precipitation 34.42 31.51  
Snow  
Snow 0.00 in 0.00 in 0.00 in ()
Month to date snowfall 0.0 0.0  
Since 1 June snowfall 0.0 0.0  
Since 1 July snowfall 0.0 0.0  
Snow Depth 0.00 in    
Sea Level Pressure  
Sea Level Pressure 29.97 in    
Wind  
Wind Speed 3 mph (NE)    
Max Wind Speed 9 mph    
Max Gust Speed 16 mph    
Visibility 10 miles    
Events      
T = Trace of Precipitation, MM = Missing Value Source: NWS Daily Summary

Daily Weather History Graph

Daily Weather History Graph

Search for Another Location

Airport or City:

Astronomy

Aug. 13, 2017 Rise Set
Actual Time 6:01 AM CDT 7:39 PM CDT
Civil Twilight 5:33 AM CDT 8:06 PM CDT
Nautical Twilight 4:59 AM CDT 8:40 PM CDT
Astronomical Twilight 4:24 AM CDT 9:15 PM CDT
Moon 11:22 PM CDT (8/13) 11:51 AM CDT (8/13)
Length of Visible Light 14h 33m
Length of Day
13h 38m
Waning Gibbous, 65% of the Moon is Illuminated
Aug 13
Waning Gibbous
Aug 14
Last Quarter
Aug 21
New
Aug 29
First Quarter
Sep 6
Full

Hourly Weather History & Observations

Time (CDT) Temp. Heat Index Dew Point Humidity Pressure Visibility Wind Dir Wind Speed Gust Speed Precip Events Conditions
12:53 AM 70.0 °F - 64.9 °F 84% 30.00 in 10.0 mi Calm Calm - N/A   Clear
1:53 AM 69.1 °F - 64.0 °F 84% 29.99 in 10.0 mi Calm Calm - N/A   Clear
2:53 AM 68.0 °F - 64.9 °F 90% 29.99 in 10.0 mi Calm Calm - N/A   Clear
3:53 AM 68.0 °F - 64.0 °F 87% 29.98 in 10.0 mi Calm Calm - N/A   Scattered Clouds
4:53 AM 66.9 °F - 63.0 °F 87% 29.98 in 10.0 mi Calm Calm - N/A   Scattered Clouds
5:53 AM 64.9 °F - 63.0 °F 93% 30.00 in 10.0 mi Calm Calm - N/A   Partly Cloudy
6:53 AM 64.9 °F - 63.0 °F 93% 30.01 in 10.0 mi NE 3.5 mph - N/A   Clear
7:53 AM 70.0 °F - 63.0 °F 78% 30.01 in 10.0 mi NE 4.6 mph - N/A   Clear
8:53 AM 73.0 °F - 64.9 °F 76% 30.02 in 10.0 mi East 6.9 mph - N/A   Scattered Clouds
9:53 AM 77.0 °F - 64.9 °F 66% 30.02 in 10.0 mi East 9.2 mph - N/A   Partly Cloudy
10:53 AM 80.1 °F 82.1 °F 66.0 °F 62% 30.01 in 10.0 mi NE 8.1 mph - N/A   Partly Cloudy
11:53 AM 82.0 °F 84.9 °F 68.0 °F 62% 30.00 in 10.0 mi Variable 5.8 mph - N/A   Partly Cloudy
12:53 PM 84.0 °F 87.0 °F 68.0 °F 58% 29.99 in 10.0 mi ENE 5.8 mph - N/A   Partly Cloudy
1:53 PM 82.9 °F 85.4 °F 66.9 °F 58% 29.97 in 10.0 mi Variable 3.5 mph - N/A   Mostly Cloudy
2:53 PM 84.0 °F 85.4 °F 64.0 °F 51% 29.96 in 10.0 mi Calm Calm - N/A   Scattered Clouds
3:53 PM 84.9 °F 87.1 °F 66.0 °F 53% 29.95 in 10.0 mi Calm Calm - N/A   Overcast
4:53 PM 84.9 °F 86.6 °F 64.9 °F 51% 29.94 in 10.0 mi Calm Calm - N/A   Mostly Cloudy
5:53 PM 84.0 °F 86.3 °F 66.0 °F 55% 29.94 in 10.0 mi Calm Calm - N/A   Mostly Cloudy
6:53 PM 82.0 °F 84.1 °F 66.0 °F 58% 29.93 in 10.0 mi NNE 3.5 mph - N/A   Scattered Clouds
7:53 PM 80.1 °F 82.7 °F 68.0 °F 67% 29.93 in 10.0 mi Calm Calm - N/A   Partly Cloudy
8:53 PM 78.1 °F - 70.0 °F 76% 29.94 in 10.0 mi Calm Calm - N/A   Partly Cloudy
9:53 PM 77.0 °F - 71.1 °F 82% 29.95 in 10.0 mi Calm Calm - N/A   Overcast
10:53 PM 77.0 °F - 71.1 °F 82% 29.93 in 10.0 mi Calm Calm - N/A   Mostly Cloudy
11:53 PM 77.0 °F - 70.0 °F 79% 29.93 in 10.0 mi WSW 4.6 mph - N/A   Overcast